Date_and_time,latitude,longitude,wind_speed,RelWindDirFrom,WindDirFrom,air_pressure,air_temperature,relative_humidity,Temp,platform_speed_wrt_ground,air_pressure_at_mean_sea_level,platform_orientation
2018-05-18 23:50,50.63044,-96.9807616666667,6.7,9.7,15,992.81,7.8,88,9.16,0.0,1020.01,270.0
2018-05-19 00:00,50.6304416666667,-96.9807533333333,8.7,10.6,25,992.78,8.4,83,9.17,0.0,1019.96,90.0
2018-05-19 00:10,50.6304433333333,-96.9807683333333,7.3,8.4,15,992.87,8.3,86,9.15,0.0,1020.07,90.0
2018-05-19 00:20,50.6304416666667,-96.9807716666667,6.0,7.7,19,992.98,8.4,84,9.13,0.0,1020.18,90.0
2018-05-19 00:30,50.63044,-96.9807733333333,7.1,8.2,17,993.05,8.1,88,9.11,0.0,1020.28,90.0
2018-05-19 00:40,50.63044,-96.9807733333333,8.3,9.6,11,992.99,8.1,88,9.09,0.0,1020.22,90.0
2018-05-19 00:50,50.6304383333333,-96.9807716666667,8.3,9.4,12,993.04,8.2,86,9.08,0.0,1020.27,90.0
2018-05-19 01:00,50.63044,-96.9807716666667,8.0,9.5,12,993.11,8.5,84,9.08,0.0,1020.32,270.0
2018-05-19 01:10,50.6304383333333,-96.9807716666667,8.3,10.0,6,993.16,8.7,82,9.07,0.0,1020.37,270.0
2018-05-19 01:20,50.63044,-96.98077,9.1,10.9,8,993.14,9.2,77,9.07,0.0,1020.32,270.0
2018-05-19 01:30,50.6304383333333,-96.9807683333333,7.9,10.0,13,993.18,9.5,77,9.07,0.0,1020.34,270.0
2018-05-19 01:40,50.6304566666667,-96.9807966666667,8.3,10.9,20,993.25,9.5,77,9.07,0.0,1020.39,270.0
2018-05-19 01:50,50.630435,-96.98077,7.0,7.9,35,993.28,9.1,81,9.06,0.0,1020.41,270.0
2018-05-19 02:00,50.6304383333333,-96.98077,6.7,9.7,36,993.39,8.7,83,9.04,0.0,1020.55,49.4
2018-05-19 02:10,50.6304383333333,-96.9807666666667,7.9,10.6,25,993.52,8.9,80,9.04,0.0,1020.67,49.4
2018-05-19 02:20,50.6304383333333,-96.98077,7.5,8.7,19,993.70,8.9,82,9.03,0.0,1020.87,49.4
2018-05-19 02:30,50.6304233333333,-96.980785,7.1,8.3,18,993.80,8.7,80,9.02,0.0,1020.99,49.4
2018-05-19 02:40,50.6304283333333,-96.98077,7.7,9.3,11,993.86,8.8,75,9.00,0.0,1021.03,49.4
2018-05-19 02:50,50.6304233333333,-96.9807616666667,7.8,9.3,12,994.01,9.0,69,9.00,0.0,1021.16,49.4
2018-05-19 03:00,50.6304266666667,-96.9807733333333,7.5,9.2,10,994.13,8.8,68,8.98,0.0,1021.28,221.2
2018-05-19 03:10,50.6304266666667,-96.98077,7.2,8.2,16,994.24,8.7,68,8.98,0.0,1021.38,221.2
2018-05-19 03:20,50.6304283333333,-96.9807683333333,7.2,8.4,19,994.35,8.7,69,8.98,0.0,1021.49,221.2
2018-05-19 03:30,50.6304283333333,-96.9807683333333,6.6,7.8,17,994.47,8.6,70,8.97,0.0,1021.61,221.2
2018-05-19 03:40,50.63043,-96.9807683333333,5.5,6.7,16,994.55,8.4,73,8.97,0.0,1021.72,221.2
2018-05-19 03:50,50.6304333333333,-96.9807683333333,4.8,5.6,13,994.64,8.2,78,8.97,0.0,1021.85,221.2
2018-05-19 04:00,50.6304333333333,-96.9807666666667,3.3,4.9,343,994.67,7.8,75,8.96,0.0,1021.89,165.5
2018-05-19 04:10,50.630435,-96.980765,2.5,3.3,341,994.68,7.5,75,8.96,0.0,1021.91,165.5
2018-05-19 04:20,50.63045,-96.9807583333333,2.3,3.2,321,994.69,7.2,75,8.96,0.0,1021.94,165.5
2018-05-19 04:30,50.6304483333333,-96.9807583333333,1.0,2.3,316,994.75,6.9,77,8.95,0.0,1022.01,165.5
2018-05-19 04:40,50.630445,-96.9807516666667,0.9,2.1,177,994.81,6.2,86,8.95,0.0,1022.10,165.5
2018-05-19 04:50,50.630435,-96.980765,1.7,3.2,311,994.83,6.4,73,8.94,0.0,1022.12,165.5
2018-05-19 05:00,50.630435,-96.9807666666667,3.6,5.8,318,994.87,6.6,61,8.94,0.0,1022.16,360.0
2018-05-19 05:10,50.630435,-96.9807566666667,4.3,5.6,332,994.92,7.0,52,8.94,0.0,1022.19,360.0
2018-05-19 05:20,50.6304316666667,-96.9807566666667,4.4,5.9,344,995.01,7.2,52,8.94,0.0,1022.28,360.0
2018-05-19 05:30,50.63041,-96.9807783333333,4.8,6.2,341,995.04,7.4,48,8.93,0.0,1022.31,360.0
2018-05-19 05:40,50.63044,-96.9807633333333,4.8,6.3,338,995.08,7.3,47,8.92,0.0,1022.36,360.0
2018-05-19 05:50,50.630435,-96.980755,4.8,6.9,341,995.13,7.3,46,8.91,0.0,1022.44,360.0
2018-05-19 06:00,50.6304433333333,-96.980805,4.1,5.6,339,995.16,7.2,45,8.90,0.0,1022.48,305.8
2018-05-19 06:10,50.6304333333333,-96.9807633333333,3.8,5.3,335,995.20,7.0,45,8.89,0.0,1022.55,305.8
2018-05-19 06:20,50.6304283333333,-96.98076,3.5,5.0,333,995.28,6.8,45,8.89,0.0,1022.66,305.8
2018-05-19 06:30,50.6304283333333,-96.98076,2.8,4.0,344,995.28,6.7,46,8.89,0.0,1022.69,305.8
2018-05-19 06:40,50.63043,-96.9807566666667,3.0,4.3,336,995.16,6.6,47,8.89,0.0,1022.58,305.8
2018-05-19 06:50,50.6304283333333,-96.9807583333333,2.6,3.8,339,995.17,6.5,47,8.89,0.0,1022.58,305.8
2018-05-19 07:00,50.63043,-96.98076,3.0,4.7,319,995.32,6.1,49,8.89,0.0,1022.73,167.4
2018-05-19 07:10,50.6304333333333,-96.98075,3.3,5.0,324,995.41,5.7,51,8.88,0.0,1022.84,167.4
2018-05-19 07:20,50.630435,-96.980755,3.6,4.7,339,995.42,5.5,52,8.88,0.0,1022.84,167.4
2018-05-19 07:30,50.6304133333333,-96.9807683333333,3.2,4.1,340,995.48,5.3,52,8.87,0.0,1022.91,167.4
2018-05-19 07:40,50.6304216666667,-96.98076,3.4,5.0,335,995.55,5.3,53,8.86,0.0,1022.99,167.4
2018-05-19 07:50,50.6304333333333,-96.9807716666667,3.2,4.8,332,995.62,5.4,53,8.83,0.0,1023.06,167.4
2018-05-19 08:00,50.6304333333333,-96.9807633333333,1.8,3.2,335,995.64,5.5,54,8.81,0.0,1023.08,142.0
2018-05-19 08:10,50.6304366666667,-96.980765,1.0,2.3,315,995.71,5.1,59,8.80,0.0,1023.19,142.0
2018-05-19 08:20,50.6304383333333,-96.9807616666667,1.8,2.4,316,995.75,4.6,59,8.80,0.0,1023.26,142.0
2018-05-19 08:30,50.63044,-96.9807616666667,2.2,3.3,308,995.81,4.3,61,8.80,0.0,1023.34,142.0
2018-05-19 08:40,50.6304416666667,-96.98076,1.8,2.4,292,995.94,3.8,63,8.80,0.0,1023.51,142.0
2018-05-19 08:50,50.6304416666667,-96.9807583333333,2.5,3.0,295,996.04,3.4,62,8.79,0.0,1023.65,142.0
2018-05-19 09:00,50.6304416666667,-96.9807583333333,2.9,3.8,294,996.08,3.0,63,8.79,0.0,1023.73,90.0
2018-05-19 09:10,50.63044,-96.9807583333333,3.0,3.9,293,996.00,2.5,66,8.79,0.0,1023.68,90.0
2018-05-19 09:20,50.6304416666667,-96.9807583333333,2.3,3.4,294,996.07,2.4,67,8.77,0.0,1023.77,90.0
2018-05-19 09:30,50.6304216666667,-96.9807583333333,2.3,3.4,288,996.09,2.3,68,8.73,0.0,1023.79,90.0
2018-05-19 09:40,50.6304333333333,-96.9807583333333,3.0,4.1,297,995.98,2.1,69,8.71,0.0,1023.69,90.0
2018-05-19 09:50,50.6304366666667,-96.9807583333333,2.2,3.1,292,995.98,1.9,72,8.71,0.0,1023.70,90.0
2018-05-19 10:00,50.6304366666667,-96.980755,1.9,2.8,291,996.03,1.9,71,8.70,0.0,1023.77,360.0
2018-05-19 10:10,50.6304366666667,-96.980755,3.0,4.0,287,996.11,2.1,70,8.69,0.0,1023.86,360.0
2018-05-19 10:20,50.63045,-96.9807416666667,3.0,3.8,289,996.22,2.0,70,8.69,0.0,1024.00,360.0
2018-05-19 10:30,50.6304466666667,-96.980755,3.3,4.1,290,996.26,1.7,70,8.69,0.0,1024.08,360.0
2018-05-19 10:40,50.630445,-96.980755,3.0,4.0,283,996.31,1.7,71,8.68,0.0,1024.15,360.0
2018-05-19 10:50,50.6304433333333,-96.9807583333333,3.2,4.3,279,996.39,1.6,73,8.68,0.0,1024.26,360.0
2018-05-19 11:00,50.6304433333333,-96.98076,3.7,6.3,281,996.51,1.4,75,8.68,0.0,1024.42,41.3
2018-05-19 11:10,50.6304416666667,-96.9807566666667,5.4,7.0,292,996.48,1.3,72,8.69,0.0,1024.40,41.3
2018-05-19 11:20,50.63044,-96.9807566666667,5.2,6.7,303,996.45,1.7,71,8.69,0.0,1024.34,41.3
2018-05-19 11:30,50.6304416666667,-96.9807566666667,6.1,8.5,314,996.37,2.6,67,8.68,0.0,1024.23,41.3
2018-05-19 11:40,50.63044,-96.9807566666667,5.0,6.7,320,996.33,3.3,63,8.68,0.0,1024.17,41.3
2018-05-19 11:50,50.6304333333333,-96.9807383333333,3.8,6.5,325,996.43,3.7,62,8.67,0.0,1024.24,41.3
2018-05-19 12:00,50.6304266666667,-96.980745,2.3,5.0,309,996.47,4.4,60,8.65,0.0,1024.24,147.5
2018-05-19 12:10,50.6304383333333,-96.9807633333333,1.1,2.2,299,996.45,5.1,58,8.63,0.0,1024.19,147.5
2018-05-19 12:20,50.6304266666667,-96.9807766666667,1.9,4.3,298,996.65,5.3,58,8.63,0.0,1024.40,147.5
2018-05-19 12:30,50.6304333333333,-96.9807766666667,3.1,5.5,278,996.81,4.9,60,8.65,0.0,1024.58,147.5
2018-05-19 12:40,50.6304366666667,-96.980765,2.7,4.4,273,996.93,5.0,60,8.64,0.0,1024.71,147.5
2018-05-19 12:50,50.630435,-96.9807616666667,2.9,4.2,280,996.92,5.5,60,8.64,0.0,1024.68,147.5
2018-05-19 13:00,50.630435,-96.98076,2.1,4.9,269,996.99,5.8,60,8.64,0.0,1024.74,0.0
2018-05-19 13:10,50.63044,-96.98076,2.3,3.2,225,997.07,6.3,59,8.63,0.0,1024.79,0.0
2018-05-19 13:20,50.630435,-96.98076,2.4,3.5,224,997.08,6.8,59,8.62,0.0,1024.72,0.0
2018-05-19 13:30,50.630435,-96.9807616666667,2.8,5.2,248,997.19,7.6,57,8.62,0.0,1024.76,0.0
2018-05-19 13:40,50.6304616666667,-96.9807983333333,2.9,5.3,237,997.23,8.1,55,8.62,0.0,1024.75,0.0
2018-05-19 13:50,50.6304416666667,-96.980775,3.4,5.0,239,997.16,8.6,52,8.64,0.0,1024.63,0.0
2018-05-19 14:00,50.63044,-96.9807616666667,3.5,4.9,217,997.21,8.9,50,8.67,0.0,1024.63,90.0
2018-05-19 14:10,50.63044,-96.98076,3.3,5.5,245,997.31,9.5,48,8.72,0.0,1024.69,90.0
2018-05-19 14:20,50.63044,-96.9807566666667,2.3,3.7,240,997.36,10.1,47,8.76,0.0,1024.73,90.0
2018-05-19 14:30,50.6304366666667,-96.9807533333333,0.7,3.2,191,997.43,10.1,55,8.77,0.0,1024.79,90.0
2018-05-19 14:40,50.6304416666667,-96.9807483333333,1.8,6.0,232,997.51,10.3,51,8.72,0.0,1024.84,90.0
2018-05-19 14:50,50.6304416666667,-96.980755,5.5,7.2,128,997.44,9.4,77,8.78,0.0,1024.80,90.0
2018-05-19 15:00,50.6304433333333,-96.980755,6.0,8.3,137,997.36,8.5,81,8.85,0.0,1024.74,327.5
2018-05-19 15:10,50.6304416666667,-96.9807566666667,7.3,9.4,142,997.31,8.5,78,8.88,0.0,1024.67,327.5
2018-05-19 15:20,50.6304416666667,-96.9807583333333,7.8,9.9,140,997.07,8.9,75,8.96,0.0,1024.36,327.5
2018-05-19 15:30,50.630395,-96.98074,7.3,8.5,124,996.90,9.3,86,9.03,0.0,1024.14,327.5
2018-05-19 15:40,50.6304383333333,-96.980755,7.1,8.7,122,996.92,8.9,90,9.02,0.0,1024.15,327.5
2018-05-19 15:50,50.6304383333333,-96.98076,7.1,10.2,104,996.87,9.0,88,9.02,0.0,1024.08,327.5
2018-05-19 16:00,50.630435,-96.9807633333333,6.3,10.5,114,996.81,9.0,85,9.04,0.0,1024.00,270.0
2018-05-19 16:10,50.6304366666667,-96.9807666666667,7.0,9.8,103,996.81,9.9,81,9.00,0.0,1023.93,270.0
2018-05-19 16:20,50.6304366666667,-96.980765,8.6,11.3,113,996.83,9.3,90,9.01,0.0,1023.97,270.0
2018-05-19 16:30,50.63044,-96.980765,9.7,11.7,107,996.74,9.1,91,8.98,0.0,1023.87,270.0
2018-05-19 16:40,50.63044,-96.980765,9.1,11.4,103,996.62,9.8,88,8.95,0.0,1023.77,270.0
2018-05-19 16:50,50.63044,-96.980765,9.3,12.4,114,996.57,9.5,94,8.91,0.0,1023.77,270.0
2018-05-19 17:00,50.63044,-96.9807633333333,9.2,12.0,112,996.48,9.6,98,8.93,0.0,1023.67,270.0
2018-05-19 17:10,50.6304416666667,-96.9807633333333,8.2,9.8,113,996.43,9.7,98,9.04,0.0,1023.60,270.0
2018-05-19 17:20,50.63044,-96.9807633333333,8.7,10.4,108,996.41,9.6,98,9.08,0.0,1023.56,270.0
2018-05-19 17:30,50.6304383333333,-96.9807483333333,8.7,11.0,122,996.31,9.5,99,9.08,0.0,1023.49,270.0
2018-05-19 17:40,50.630435,-96.980795,7.4,10.5,121,996.34,9.7,99,9.08,0.0,1023.50,270.0
2018-05-19 17:50,50.630435,-96.9807666666667,9.7,11.7,117,996.25,9.9,99,9.07,0.0,1023.40,270.0
2018-05-19 18:00,50.6304366666667,-96.9807566666667,7.8,9.9,125,996.18,9.8,99,9.04,0.0,1023.29,142.0
2018-05-19 18:10,50.6304383333333,-96.980755,9.0,10.5,123,996.10,9.5,99,9.06,0.0,1023.25,142.0
2018-05-19 18:20,50.6304383333333,-96.980755,9.7,11.0,121,995.98,9.9,99,9.05,0.0,1023.11,142.0
2018-05-19 18:30,50.6304383333333,-96.980755,8.6,9.8,126,995.95,10.1,99,9.09,0.0,1023.04,142.0
2018-05-19 18:40,50.6304383333333,-96.9807566666667,9.7,10.9,130,995.88,10.4,95,9.11,0.0,1022.96,142.0
2018-05-19 18:50,50.6304366666667,-96.9807316666667,9.4,10.8,124,995.77,11.0,83,9.08,0.0,1022.82,142.0
2018-05-19 19:00,50.630445,-96.9807383333333,8.5,9.6,124,995.72,11.2,82,9.09,0.0,1022.76,73.2
2018-05-19 19:10,50.6304416666667,-96.9807416666667,7.9,9.1,128,995.62,11.0,88,9.21,0.0,1022.67,73.2
2018-05-19 19:20,50.6304183333333,-96.9807516666667,8.1,9.7,125,995.53,11.2,82,9.26,0.0,1022.57,73.2
2018-05-19 19:30,50.6304466666667,-96.9807616666667,8.2,9.1,133,995.43,11.4,75,9.35,0.0,1022.45,73.2
2018-05-19 19:40,50.6304433333333,-96.9807566666667,8.7,9.5,129,995.32,11.6,71,9.45,0.0,1022.31,73.2
2018-05-19 19:50,50.6304383333333,-96.9807533333333,8.5,9.6,130,995.25,11.9,65,9.42,0.0,1022.24,73.2
2018-05-19 20:00,50.630445,-96.98076,7.1,8.2,131,995.24,11.9,66,9.46,0.0,1022.24,90.0
2018-05-19 20:10,50.630445,-96.9807633333333,7.5,9.3,116,995.21,12.2,58,9.55,0.0,1022.17,90.0
2018-05-19 20:20,50.630445,-96.9807616666667,7.9,9.4,111,995.13,12.7,53,9.60,0.0,1022.06,90.0
2018-05-19 20:30,50.630445,-96.9807616666667,7.0,8.3,106,995.09,13.1,50,9.70,0.0,1021.98,90.0
2018-05-19 20:40,50.630445,-96.98076,6.1,7.8,102,995.05,13.3,50,9.75,0.0,1021.91,90.0
2018-05-19 20:50,50.630445,-96.98076,4.9,7.0,93,994.95,13.2,51,9.80,0.0,1021.80,90.0
2018-05-19 21:00,50.630445,-96.9807583333333,5.9,7.3,82,994.88,13.0,50,9.88,0.0,1021.74,38.0
2018-05-19 21:10,50.630445,-96.98076,5.4,6.1,84,994.81,12.5,54,9.95,0.0,1021.70,38.0
2018-05-19 21:20,50.630445,-96.98076,4.9,5.9,96,994.81,13.1,52,9.95,0.0,1021.65,38.0
2018-05-19 21:30,50.630455,-96.9808116666667,4.7,5.9,100,994.85,13.4,49,9.96,0.0,1021.66,38.0
2018-05-19 21:40,50.63043,-96.9807466666667,3.6,4.6,99,994.89,13.9,45,9.90,0.0,1021.67,38.0
2018-05-19 21:50,50.6304366666667,-96.9807516666667,3.9,7.0,84,994.74,14.4,43,9.86,0.0,1021.49,38.0
2018-05-19 22:00,50.6304366666667,-96.9807516666667,4.3,6.6,70,994.69,13.6,50,9.86,0.0,1021.46,240.8
2018-05-19 22:10,50.630435,-96.980755,6.4,7.3,71,994.66,12.9,46,9.86,0.0,1021.45,240.8
2018-05-19 22:20,50.630435,-96.980755,6.2,7.3,78,994.64,13.3,41,9.95,0.0,1021.38,240.8
2018-05-19 22:30,50.6304366666667,-96.980755,3.7,5.0,70,994.66,13.9,39,10.14,0.0,1021.37,240.8
2018-05-19 22:40,50.6304383333333,-96.9807566666667,3.9,5.2,54,994.67,13.2,44,10.10,0.0,1021.42,240.8
2018-05-19 22:50,50.6304383333333,-96.9807583333333,5.6,7.2,46,994.64,12.7,49,10.21,0.0,1021.42,240.8
2018-05-19 23:00,50.6304316666667,-96.9807833333333,7.1,8.0,54,994.58,12.5,49,10.19,0.0,1021.40,240.8
2018-05-19 23:10,50.630435,-96.9807516666667,5.0,6.6,68,994.67,12.8,47,10.26,0.0,1021.44,240.8
2018-05-19 23:20,50.6304366666667,-96.980755,1.5,3.4,92,994.74,13.8,42,10.21,0.0,1021.45,240.8
2018-05-19 23:30,50.6304383333333,-96.980755,1.6,2.5,117,994.70,14.7,39,10.16,0.0,1021.35,240.8
